• In Uzbekistan
  • List of Countries
  • For 7 days
  • Water Temperature
  • Satellite Maps
  • Weather Map
  • Weather Widgets
  • user-avatar
    Login

    Hourly Weather Mykonos

    Today, 16 December, Saturday

    Time Temperature Precipitation Wind Pressure Humidity
    00:00 +17°C° 0 mm 10 mps 762 mmHg 76%
    01:00 +17°C° 0 mm 10 mps 762 mmHg 77%
    02:00 +17°C° 0 mm 10 mps 762 mmHg 78%
    03:00 +17°C° 0 mm 9 mps 762 mmHg 79%
    04:00 +17°C° 0 mm 9 mps 762 mmHg 79%
    05:00 +17°C° 0 mm 8 mps 762 mmHg 79%
    06:00 +17°C° 0 mm 8 mps 762 mmHg 80%
    07:00 +17°C° 0 mm 8 mps 762 mmHg 80%
    08:00 +17°C° 0 mm 8 mps 762 mmHg 80%
    09:00 +17°C° 0 mm 8 mps 762 mmHg 80%
    10:00 +17°C° 0 mm 8 mps 762 mmHg 80%
    11:00 +17°C° 0 mm 8 mps 762 mmHg 79%
    12:00 +17°C° 0 mm 8 mps 761 mmHg 79%
    13:00 +17°C° 0 mm 7 mps 761 mmHg 79%
    14:00 +17°C° 0 mm 7 mps 760 mmHg 78%
    15:00 +17°C° 0 mm 6 mps 761 mmHg 79%
    16:00 +19°C° 0 mm 6 mps 761 mmHg 79%
    17:00 +19°C° 0 mm 6 mps 761 mmHg 80%
    18:00 +19°C° 0.3 mm 6 mps 761 mmHg 80%
    19:00 +18°C° 0.3 mm 7 mps 761 mmHg 81%
    20:00 +18°C° 0.3 mm 7 mps 761 mmHg 82%
    21:00 +17°C° 0 mm 8 mps 761 mmHg 80%
    22:00 +17°C° 0 mm 8 mps 761 mmHg 78%
    23:00 +17°C° 0 mm 9 mps 761 mmHg 76%

    Tomorrow, 17 December, Sunday

    Time Temperature Precipitation Wind Pressure Humidity
    00:00 +17°C° 0 mm 9 mps 761 mmHg 76%
    01:00 +17°C° 0 mm 9 mps 761 mmHg 77%
    02:00 +17°C° 0 mm 10 mps 760 mmHg 78%
    03:00 +17°C° 0 mm 9 mps 760 mmHg 77%
    04:00 +17°C° 0 mm 9 mps 759 mmHg 77%
    05:00 +17°C° 0 mm 9 mps 759 mmHg 77%
    06:00 +17°C° 0 mm 9 mps 759 mmHg 77%
    07:00 +17°C° 0 mm 9 mps 759 mmHg 77%
    08:00 +18°C° 0 mm 8 mps 759 mmHg 78%
    09:00 +18°C° 0 mm 8 mps 759 mmHg 77%
    10:00 +18°C° 0 mm 8 mps 759 mmHg 77%
    11:00 +18°C° 0 mm 8 mps 759 mmHg 77%
    12:00 +18°C° 0 mm 9 mps 759 mmHg 78%
    13:00 +18°C° 0 mm 9 mps 759 mmHg 79%
    14:00 +18°C° 0 mm 9 mps 759 mmHg 81%
    15:00 +17°C° 0.1 mm 9 mps 759 mmHg 80%
    16:00 +17°C° 0.1 mm 9 mps 759 mmHg 80%
    17:00 +17°C° 0.1 mm 8 mps 759 mmHg 80%
    18:00 +17°C° 0.2 mm 8 mps 760 mmHg 79%
    19:00 +17°C° 0.2 mm 8 mps 760 mmHg 78%
    20:00 +17°C° 0.2 mm 8 mps 761 mmHg 77%
    21:00 +17°C° 0.1 mm 8 mps 761 mmHg 76%
    22:00 +17°C° 0.1 mm 7 mps 761 mmHg 75%
    23:00 +17°C° 0.1 mm 7 mps 762 mmHg 73%

    Day after tomorrow, 18 December, Monday

    Time Temperature Precipitation Wind Pressure Humidity
    00:00 +17°C° 0 mm 7 mps 762 mmHg 71%
    01:00 +17°C° 0 mm 7 mps 762 mmHg 69%
    02:00 +16°C° 0 mm 7 mps 762 mmHg 66%
    03:00 +16°C° 0 mm 7 mps 762 mmHg 65%
    04:00 +16°C° 0 mm 6 mps 762 mmHg 63%
    05:00 +16°C° 0 mm 6 mps 762 mmHg 61%
    06:00 +16°C° 0 mm 6 mps 762 mmHg 61%
    07:00 +16°C° 0 mm 6 mps 763 mmHg 60%
    08:00 +15°C° 0 mm 5 mps 763 mmHg 60%
    09:00 +15°C° 0 mm 5 mps 763 mmHg 59%
    10:00 +15°C° 0 mm 5 mps 763 mmHg 59%
    11:00 +15°C° 0 mm 5 mps 763 mmHg 59%
    12:00 +15°C° 0 mm 5 mps 763 mmHg 59%
    13:00 +15°C° 0 mm 5 mps 763 mmHg 59%
    14:00 +15°C° 0 mm 5 mps 762 mmHg 58%
    15:00 +15°C° 0 mm 4 mps 762 mmHg 58%
    16:00 +15°C° 0 mm 4 mps 762 mmHg 57%
    17:00 +15°C° 0 mm 4 mps 762 mmHg 57%
    18:00 +15°C° 0 mm 4 mps 762 mmHg 56%
    19:00 +16°C° 0 mm 3 mps 763 mmHg 56%
    20:00 +16°C° 0 mm 3 mps 763 mmHg 56%
    21:00 +16°C° 0.1 mm 3 mps 763 mmHg 57%
    22:00 +16°C° 0.1 mm 3 mps 763 mmHg 58%
    23:00 +14°C° 0.1 mm 3 mps 763 mmHg 59%

    19 December, Tuesday

    Time Temperature Precipitation Wind Pressure Humidity
    00:00 +14°C° 0.1 mm 3 mps 764 mmHg 60%
    01:00 +14°C° 0.1 mm 4 mps 764 mmHg 61%
    02:00 +14°C° 0.1 mm 4 mps 764 mmHg 62%
    03:00 +14°C° 0.4 mm 5 mps 764 mmHg 65%
    04:00 +14°C° 0.4 mm 6 mps 764 mmHg 67%
    05:00 +12°C° 0.4 mm 7 mps 765 mmHg 70%
    06:00 +12°C° 0.2 mm 7 mps 765 mmHg 70%
    07:00 +12°C° 0.2 mm 7 mps 766 mmHg 70%
    08:00 +12°C° 0.2 mm 7 mps 766 mmHg 70%
    09:00 +12°C° 0.1 mm 7 mps 767 mmHg 70%
    10:00 +12°C° 0.1 mm 7 mps 767 mmHg 70%
    11:00 +12°C° 0.1 mm 8 mps 767 mmHg 70%
    12:00 +12°C° 0.1 mm 8 mps 767 mmHg 71%
    13:00 +12°C° 0.1 mm 8 mps 767 mmHg 72%
    14:00 +12°C° 0.1 mm 9 mps 767 mmHg 72%
    15:00 +12°C° 0 mm 9 mps 767 mmHg 72%
    16:00 +12°C° 0 mm 9 mps 767 mmHg 72%
    17:00 +12°C° 0 mm 9 mps 767 mmHg 72%
    18:00 +12°C° 0 mm 9 mps 768 mmHg 71%
    19:00 +11°C° 0 mm 8 mps 768 mmHg 70%
    20:00 +11°C° 0 mm 8 mps 768 mmHg 70%
    21:00 +11°C° 0 mm 8 mps 769 mmHg 69%
    22:00 +11°C° 0 mm 8 mps 769 mmHg 69%
    23:00 +11°C° 0 mm 8 mps 769 mmHg 69%

    20 December, Wednesday

    Time Temperature Precipitation Wind Pressure Humidity
    00:00 +11°C° 0.1 mm 9 mps 769 mmHg 69%
    01:00 +11°C° 0.1 mm 9 mps 769 mmHg 69%
    02:00 +11°C° 0.1 mm 9 mps 769 mmHg 69%
    03:00 +11°C° 0.1 mm 9 mps 769 mmHg 68%
    04:00 +11°C° 0.1 mm 10 mps 769 mmHg 68%
    05:00 +9°C° 0.1 mm 10 mps 769 mmHg 68%
    06:00 +9°C° 0 mm 10 mps 770 mmHg 66%
    07:00 +9°C° 0 mm 10 mps 770 mmHg 65%
    08:00 +9°C° 0 mm 10 mps 770 mmHg 64%
    09:00 +9°C° 0 mm 10 mps 770 mmHg 63%
    10:00 +10°C° 0 mm 9 mps 771 mmHg 61%
    11:00 +10°C° 0 mm 9 mps 771 mmHg 60%
    12:00 +10°C° 0 mm 9 mps 771 mmHg 59%
    13:00 +10°C° 0 mm 9 mps 770 mmHg 58%
    14:00 +10°C° 0 mm 9 mps 770 mmHg 57%
    15:00 +10°C° 0 mm 9 mps 770 mmHg 57%
    16:00 +10°C° 0 mm 9 mps 770 mmHg 57%
    17:00 +10°C° 0 mm 9 mps 770 mmHg 57%
    18:00 +10°C° 0 mm 9 mps 770 mmHg 56%
    19:00 +10°C° 0 mm 9 mps 770 mmHg 56%
    20:00 +10°C° 0 mm 8 mps 770 mmHg 55%
    21:00 +10°C° 0 mm 8 mps 770 mmHg 56%
    22:00 +10°C° 0 mm 8 mps 770 mmHg 56%
    23:00 +10°C° 0 mm 8 mps 770 mmHg 56%

    21 December, Thursday

    Time Temperature Precipitation Wind Pressure Humidity
    00:00 +10°C° 0 mm 8 mps 770 mmHg 57%
    01:00 +9°C° 0 mm 8 mps 770 mmHg 57%
    02:00 +9°C° 0 mm 8 mps 770 mmHg 58%
    03:00 +9°C° 0 mm 8 mps 769 mmHg 58%
    04:00 +9°C° 0 mm 8 mps 769 mmHg 59%
    05:00 +9°C° 0 mm 8 mps 769 mmHg 59%
    06:00 +9°C° 0 mm 8 mps 769 mmHg 60%
    07:00 +9°C° 0 mm 8 mps 769 mmHg 60%
    08:00 +9°C° 0 mm 8 mps 769 mmHg 60%
    09:00 +9°C° 0 mm 8 mps 770 mmHg 60%
    10:00 +8°C° 0 mm 9 mps 770 mmHg 59%
    11:00 +8°C° 0 mm 9 mps 770 mmHg 59%
    12:00 +8°C° 0 mm 9 mps 770 mmHg 59%
    13:00 +8°C° 0 mm 10 mps 770 mmHg 60%
    14:00 +8°C° 0 mm 10 mps 769 mmHg 61%
    15:00 +8°C° 0.1 mm 11 mps 769 mmHg 61%
    16:00 +8°C° 0.1 mm 11 mps 770 mmHg 62%
    17:00 +8°C° 0.1 mm 12 mps 770 mmHg 62%
    18:00 +8°C° 0.1 mm 12 mps 770 mmHg 63%
    19:00 +8°C° 0.1 mm 12 mps 770 mmHg 63%
    20:00 +8°C° 0.1 mm 12 mps 770 mmHg 63%
    21:00 +8°C° 0 mm 12 mps 771 mmHg 64%
    22:00 +8°C° 0 mm 12 mps 771 mmHg 64%
    23:00 +8°C° 0 mm 12 mps 771 mmHg 64%
    Show more